GW7389 Weather Reports


time (UTC)temp
C
wind
direction
speed
KPH
gust
KPH
rain 1hr
cm
rain 24hr
cm
rain mn
cm
humidity
%
barometer
mb
20260507231247 10 329 17.7 38.6 0.00 0.00 0.00 58 1009.6
20260507230743 10 290 32.2 41.8 0.00 0.00 0.00 49 1009.3
20260507230241 10 308 16.1 20.9 0.00 0.00 0.00 48 1009.1
20260507225740 11 299 14.5 20.9 0.00 0.00 0.00 48 1008.9
20260507225237 11 302 12.9 16.1 0.00 0.00 0.00 48 1008.9
20260507224732 11 281 11.3 14.5 0.00 0.00 0.00 46 1008.6
20260507224230 11 294 12.9 16.1 0.00 0.00 0.00 46 1008.7
20260507223726 11 310 14.5 20.9 0.00 0.00 0.00 48 1008.5
20260507223222 11 305 9.7 20.9 0.00 0.00 0.00 47 1008.3
20260507222719 11 330 9.7 16.1 0.00 0.00 0.00 48 1008.6
20260507222216 12 291 14.5 20.9 0.00 0.00 0.00 46 1008.5
20260507221712 12 260 14.5 17.7 0.00 0.00 0.00 47 1008.6
20260507221209 11 295 12.9 27.4 0.00 0.00 0.00 46 1008.5
20260507220705 12 292 8.0 16.1 0.00 0.00 0.00 46 1008.4
20260507220204 12 257 6.4 16.1 0.00 0.00 0.00 45 1008.4
20260507215659 13 273 17.7 24.1 0.00 0.00 0.00 40 1008.2
20260507215157 13 301 9.7 16.1 0.00 0.00 0.00 41 1008.1
20260507214654 13 262 11.3 17.7 0.00 0.00 0.00 39 1008.2
20260507214151 13 296 19.3 25.7 0.00 0.00 0.00 40 1008.1
20260507213646 13 311 6.4 22.5 0.00 0.00 0.00 43 1008.0
20260507213144 13 295 17.7 22.5 0.00 0.00 0.00 40 1008.1
20260507212640 12 300 9.7 16.1 0.00 0.00 0.00 43 1008.2
20260507212137 12 293 22.5 29.0 0.00 0.00 0.00 41 1008.2
20260507211634 12 293 17.7 20.9 0.00 0.00 0.00 42 1008.0
20260507211129 12 292 14.5 30.6 0.00 0.00 0.00 43 1007.9
20260507210627 12 300 9.7 11.3 0.00 0.00 0.00 44 1008.0
20260507210124 12 272 11.3 14.5 0.00 0.00 0.00 45 1007.9
20260507205620 12 323 11.3 14.5 0.00 0.00 0.00 43 1007.8
20260507205117 12 311 11.3 16.1 0.00 0.00 0.00 43 1008.1
20260507204613 12 269 8.0 14.5 0.00 0.00 0.00 42 1007.9
20260507204110 12 284 14.5 16.1 0.00 0.00 0.00 42 1008.0
20260507203608 12 269 12.9 16.1 0.00 0.00 0.00 42 1008.2
20260507203106 12 306 17.7 22.5 0.00 0.00 0.00 43 1008.0
20260507202601 12 284 8.0 16.1 0.00 0.00 0.00 44 1008.0
20260507202057 12 293 16.1 22.5 0.00 0.00 0.00 43 1008.0
20260507201553 12 273 9.7 22.5 0.00 0.00 0.00 42 1008.2
20260507201050 12 317 9.7 17.7 0.00 0.00 0.00 44 1008.3
20260507200545 12 302 19.3 24.1 0.00 0.00 0.00 42 1008.3
20260507200042 12 297 11.3 20.9 0.00 0.00 0.00 40 1008.3
20260507195539 12 259 11.3 14.5 0.00 0.00 0.00 43 1008.2
20260507195037 13 317 9.7 20.9 0.00 0.00 0.00 40 1008.1
20260507194532 14 296 8.0 17.7 0.00 0.00 0.00 44 1008.2
20260507194029 13 264 8.0 16.1 0.00 0.00 0.00 42 1008.1
20260507193526 13 247 17.7 27.4 0.00 0.00 0.00 42 1008.3
20260507193022 13 286 9.7 22.5 0.00 0.00 0.00 43 1008.3
20260507192519 12 296 14.5 16.1 0.00 0.00 0.00 47 1008.4
20260507192016 12 261 11.3 12.9 0.00 0.00 0.00 43 1008.3
20260507191511 12 290 9.7 17.7 0.00 0.00 0.00 44 1008.3
20260507191008 12 221 4.8 17.7 0.00 0.00 0.00 43 1008.5
20260507190506 12 281 14.5 22.5 0.00 0.00 0.00 40 1008.5
20260507190006 12 272 16.1 22.5 0.00 0.00 0.00 41 1008.5
20260507185502 12 273 9.7 20.9 0.00 0.00 0.00 46 1008.6
20260507184958 12 313 17.7 22.5 0.00 0.00 0.00 43 1008.5
20260507184457 12 291 14.5 22.5 0.00 0.00 0.00 46 1008.7
20260507183954 12 267 12.9 24.1 0.00 0.00 0.00 45 1008.6
20260507183450 12 258 12.9 20.9 0.00 0.00 0.00 44 1008.6
20260507182948 12 292 9.7 17.7 0.00 0.00 0.00 45 1008.5
20260507182443 12 289 14.5 24.1 0.00 0.00 0.00 42 1008.7
20260507181939 12 298 22.5 33.8 0.00 0.00 0.00 41 1008.6
20260507181436 12 280 14.5 20.9 0.00 0.00 0.00 42 1008.5
20260507180933 12 270 17.7 24.1 0.00 0.00 0.00 41 1008.5
20260507180430 13 282 16.1 20.9 0.00 0.00 0.00 40 1008.7
20260507175925 12 242 16.1 22.5 0.00 0.00 0.00 40 1008.5
20260507175422 12 267 12.9 20.9 0.00 0.00 0.00 40 1008.9
20260507174920 12 282 12.9 16.1 0.00 0.00 0.00 43 1008.6
20260507174417 12 321 9.7 17.7 0.00 0.00 0.00 47 1008.9
20260507173915 11 257 6.4 9.7 0.00 0.00 0.00 45 1009.0
20260507173412 12 254 8.0 16.1 0.00 0.00 0.00 44 1009.1
20260507172908 12 285 16.1 20.9 0.00 0.00 0.00 45 1009.2
20260507172405 12 239 8.0 17.7 0.00 0.00 0.00 46 1009.1
20260507171901 13 312 3.2 16.1 0.00 0.00 0.00 38 1009.3
20260507171357 13 294 22.5 25.7 0.00 0.00 0.00 42 1009.2
20260507170855 13 272 11.3 14.5 0.00 0.00 0.00 49 1009.3
20260507170351 12 321 12.9 17.7 0.00 0.00 0.00 46 1009.4
20260507165847 12 250 9.7 17.7 0.00 0.00 0.00 51 1009.3
20260507165343 11 276 4.8 9.7 0.00 0.00 0.00 47 1009.4
20260507164839 11 273 16.1 16.1 0.00 0.00 0.00 45 1009.4
20260507164337 12 303 6.4 11.3 0.00 0.00 0.00 48 1009.6
20260507163833 12 283 11.3 14.5 0.00 0.00 0.00 46 1009.6
20260507163331 12 321 12.9 24.1 0.00 0.00 0.00 45 1009.6
20260507162827 12 244 1.6 12.9 0.00 0.00 0.00 44 1009.6
20260507162323 11 258 9.7 14.5 0.00 0.00 0.00 47 1009.6
20260507161820 12 272 9.7 12.9 0.00 0.00 0.00 46 1009.6
20260507161317 11 213 1.6 12.9 0.00 0.00 0.00 47 1009.8
20260507160813 12 239 9.7 11.3 0.00 0.00 0.00 43 1009.7
20260507160309 12 266 12.9 16.1 0.00 0.00 0.00 42 1009.6
20260507155805 12 259 8.0 12.9 0.00 0.00 0.00 49 1009.7
20260507155305 11 245 14.5 16.1 0.00 0.00 0.00 43 1009.7
20260507154758 11 264 14.5 16.1 0.00 0.00 0.00 46 1010.0
20260507154256 12 151 1.6 9.7 0.00 0.00 0.00 48 1010.0
20260507153752 10 297 9.7 12.9 0.00 0.00 0.00 47 1009.9
20260507153248 11 256 11.3 14.5 0.00 0.00 0.00 43 1010.1
20260507152745 11 269 11.3 22.5 0.00 0.00 0.00 45 1010.0
20260507152242 11 265 12.9 17.7 0.00 0.00 0.00 44 1010.2
20260507151737 10 288 12.9 22.5 0.00 0.00 0.00 48 1010.1
20260507151234 10 294 14.5 20.9 0.00 0.00 0.00 47 1010.3
20260507150731 11 246 9.7 25.7 0.00 0.00 0.00 47 1010.2
20260507150228 11 273 11.3 17.7 0.00 0.00 0.00 48 1010.4
20260507145724 11 295 12.9 16.1 0.00 0.00 0.00 47 1010.4
20260507145221 11 290 8.0 14.5 0.00 0.00 0.00 48 1010.3
20260507144718 11 260 12.9 16.1 0.00 0.00 0.00 49 1010.4
20260507144215 11 300 8.0 11.3 0.00 0.00 0.00 50 1010.5
20260507143712 11 247 8.0 12.9 0.00 0.00 0.00 46 1010.6
20260507143209 11 310 9.7 16.1 0.00 0.00 0.00 47 1010.7
20260507142704 11 256 11.3 17.7 0.00 0.00 0.00 46 1010.6
20260507142202 11 267 6.4 14.5 0.00 0.00 0.00 51 1010.7
20260507141657 11 248 9.7 12.9 0.00 0.00 0.00 50 1010.6
20260507141154 11 298 6.4 12.9 0.00 0.00 0.00 53 1010.9
20260507140651 11 274 6.4 9.7 0.00 0.00 0.00 55 1010.8
20260507140149 10 279 6.4 6.4 0.00 0.00 0.00 53 1011.0
20260507135645 10 311 14.5 17.7 0.00 0.00 0.00 48 1011.0
20260507135143 10 231 6.4 17.7 0.00 0.00 0.00 52 1010.9
20260507134639 10 301 11.3 17.7 0.00 0.00 0.00 54 1011.0
20260507134135 10 295 9.7 14.5 0.00 0.00 0.00 58 1010.9
20260507133631 10 266 9.7 14.5 0.00 0.00 0.00 54 1010.9
20260507133129 10 281 12.9 17.7 0.00 0.00 0.00 53 1011.0
20260507132626 10 242 9.7 20.9 0.00 0.00 0.00 55 1011.0
20260507132122 10 275 11.3 16.1 0.00 0.00 0.00 56 1010.8
20260507131619 9 232 8.0 12.9 0.00 0.00 0.00 56 1011.2
20260507131117 9 218 6.4 20.9 0.00 0.00 0.00 57 1010.8
20260507130613 9 246 9.7 12.9 0.00 0.00 0.00 58 1010.9
20260507130111 8 241 12.9 16.1 0.00 0.00 0.00 59 1010.9
20260507125610 8 279 9.7 17.7 0.00 0.00 0.00 58 1011.2
20260507125106 8 239 4.8 12.9 0.00 0.00 0.00 61 1011.0
20260507124603 8 259 9.7 11.3 0.00 0.00 0.00 60 1011.2
20260507124101 8 250 6.4 9.7 0.00 0.00 0.00 59 1010.9
20260507123559 8 173 4.8 6.4 0.00 0.00 0.00 61 1010.9
20260507123055 8 246 3.2 11.3 0.00 0.00 0.00 64 1011.0
20260507122550 8 268 4.8 6.4 0.00 0.00 0.00 62 1011.2
20260507122046 7 231 3.2 3.2 0.00 0.00 0.00 65 1011.2
20260507121542 7 241 4.8 4.8 0.00 0.00 0.00 63 1010.9
20260507121038 7 235 1.6 4.8 0.00 0.00 0.00 67 1011.0
20260507120535 7 218 1.6 3.2 0.00 0.00 0.00 67 1011.2
20260507120032 7 223 3.2 6.4 0.00 0.00 0.00 64 1011.2
20260507115528 7 211 0.0 1.6 0.00 0.00 0.00 69 1011.2
20260507115024 6 211 0.0 1.6 0.00 0.00 0.00 73 1011.2
20260507114520 6 211 0.0 1.6 0.00 0.00 0.00 74 1010.8
20260507114017 7 211 0.0 1.6 0.00 0.00 0.00 71 1011.2
20260507113514 6 211 0.0 0.0 0.00 0.00 0.00 73 1010.8
20260507113012 6 211 0.0 0.0 0.00 0.00 0.00 75 1010.8
20260507112509 5 211 0.0 0.0 0.00 0.00 0.00 77 1010.9
20260507112006 5 211 1.6 1.6 0.00 0.00 0.00 74 1010.9
20260507111504 5 212 0.0 1.6 0.00 0.00 0.00 74 1010.9
20260507110959 5 212 0.0 0.0 0.00 0.00 0.00 75 1010.8
20260507110456 5 212 0.0 0.0 0.00 0.00 0.00 74 1010.9
20260507105952 5 213 0.0 0.0 0.00 0.00 0.00 73 1011.0
20260507105449 4 213 0.0 0.0 0.00 0.00 0.00 78 1010.8
20260507104946 3 213 0.0 0.0 0.00 0.00 0.00 83 1010.7
20260507104443 2 213 0.0 0.0 0.00 0.00 0.00 80 1010.8
20260507103938 2 292 0.0 0.0 0.00 0.00 0.00 81 1010.7
20260507103435 2 292 0.0 0.0 0.00 0.00 0.00 82 1010.6
20260507102931 2 292 0.0 0.0 0.00 0.00 0.00 80 1010.7
20260507102428 2 292 0.0 0.0 0.00 0.00 0.00 80 1010.5
20260507101925 2 292 0.0 0.0 0.00 0.00 0.00 79 1010.7
20260507101420 2 292 0.0 0.0 0.00 0.00 0.00 76 1010.7
20260507100917 2 292 0.0 0.0 0.00 0.00 0.00 79 1010.7
20260507100414 1 292 0.0 0.0 0.00 0.00 0.00 84 1010.5
20260507095913 1 292 0.0 0.0 0.00 0.00 0.00 83 1010.4
20260507095409 1 292 0.0 0.0 0.00 0.00 0.00 83 1010.4
20260507094907 2 292 0.0 0.0 0.00 0.00 0.00 81 1010.6
20260507094403 2 292 0.0 0.0 0.00 0.00 0.00 79 1010.6
20260507093900 2 292 0.0 0.0 0.00 0.00 0.00 81 1010.4
20260507093358 2 292 0.0 0.0 0.00 0.00 0.00 82 1010.4
20260507092856 2 292 0.0 0.0 0.00 0.00 0.00 82 1010.5
20260507092352 2 292 0.0 0.0 0.00 0.00 0.00 82 1010.7
20260507091848 2 292 0.0 0.0 0.00 0.00 0.00 82 1010.7
20260507091345 2 292 0.0 0.0 0.00 0.00 0.00 81 1010.6
20260507090840 2 292 0.0 0.0 0.00 0.00 0.00 85 1010.5
20260507090337 2 292 0.0 0.0 0.00 0.00 0.00 83 1010.6
20260507085834 2 292 0.0 0.0 0.00 0.00 0.00 84 1010.7
20260507085331 2 292 0.0 0.0 0.00 0.00 0.00 85 1010.7
20260507084828 2 292 0.0 0.0 0.00 0.00 0.00 87 1010.9
20260507084324 2 292 0.0 0.0 0.00 0.00 0.00 86 1010.8
20260507083822 2 292 0.0 0.0 0.00 0.00 0.00 84 1010.7
20260507083318 2 292 0.0 0.0 0.00 0.00 0.00 84 1010.6
20260507082814 2 292 0.0 0.0 0.00 0.00 0.00 85 1010.8
20260507082310 3 292 0.0 0.0 0.00 0.00 0.00 83 1010.9
20260507081808 3 292 0.0 0.0 0.00 0.00 0.00 82 1010.8
20260507081303 3 292 0.0 0.0 0.00 0.00 0.00 83 1010.8
20260507080800 3 292 0.0 1.6 0.00 0.00 0.00 81 1010.9
20260507080257 3 292 1.6 1.6 0.00 0.00 0.00 78 1010.7
20260507075752 3 292 1.6 1.6 0.00 0.00 0.00 78 1010.9
20260507075248 4 292 1.6 1.6 0.00 0.00 0.00 75 1010.9
20260507074744 3 293 1.6 1.6 0.00 0.00 0.00 75 1010.9
20260507074243 3 294 1.6 1.6 0.00 0.00 0.00 81 1011.0
20260507073739 3 294 1.6 3.2 0.00 0.00 0.00 82 1011.0
20260507073236 4 294 1.6 1.6 0.00 0.00 0.00 75 1010.9
20260507072734 3 294 1.6 1.6 0.00 0.00 0.00 75 1010.8
20260507072231 3 294 0.0 0.0 0.00 0.00 0.00 76 1011.0
20260507071728 4 294 1.6 1.6 0.00 0.00 0.00 78 1010.9
20260507071224 5 294 1.6 1.6 0.00 0.00 0.00 71 1010.9
20260507070722 5 294 1.6 1.6 0.00 0.00 0.00 69 1010.8
20260507070218 5 294 1.6 1.6 0.00 0.00 0.00 70 1010.7
20260507065714 4 294 0.0 0.0 0.00 0.00 0.00 73 1010.8
20260507065212 5 294 0.0 0.0 0.00 0.00 0.00 74 1010.9
20260507064709 5 294 0.0 0.0 0.00 0.00 0.00 70 1011.2
20260507064208 5 294 0.0 0.0 0.00 0.00 0.00 71 1011.2
20260507063705 5 294 1.6 1.6 0.00 0.00 0.00 69 1011.0
20260507063201 5 294 1.6 1.6 0.00 0.00 0.00 71 1011.2
20260507062658 5 294 0.0 0.0 0.00 0.00 0.00 72 1011.2
20260507062156 5 294 1.6 1.6 0.00 0.00 0.00 70 1011.2
20260507061654 5 294 1.6 1.6 0.00 0.00 0.00 68 1011.3
20260507061152 5 294 1.6 1.6 0.00 0.00 0.00 73 1011.3
20260507060649 5 295 1.6 1.6 0.00 0.00 0.00 75 1011.5
20260507060145 5 294 1.6 1.6 0.00 0.00 0.00 69 1011.6
20260507055641 5 295 0.0 0.0 0.00 0.00 0.00 70 1011.4
20260507055137 5 294 0.0 0.0 0.00 0.00 0.00 71 1011.4
20260507054633 5 294 0.0 1.6 0.00 0.00 0.00 70 1011.4
20260507054131 5 295 0.0 0.0 0.00 0.00 0.00 69 1011.6
20260507053628 5 295 0.0 1.6 0.00 0.00 0.00 67 1011.4
20260507053126 5 295 0.0 1.6 0.00 0.00 0.00 66 1011.8
20260507052624 5 295 0.0 1.6 0.00 0.00 0.00 67 1011.6
20260507052120 6 295 1.6 1.6 0.00 0.00 0.00 66 1011.7
20260507051618 6 296 3.2 3.2 0.00 0.00 0.00 64 1011.8
20260507051115 6 298 3.2 3.2 0.00 0.00 0.00 65 1011.8
20260507050612 6 300 4.8 3.2 0.00 0.00 0.00 65 1011.9
20260507050108 6 304 3.2 4.8 0.00 0.00 0.00 66 1011.9
20260507045605 6 316 4.8 6.4 0.00 0.00 0.00 66 1011.9
20260507045102 6 307 4.8 4.8 0.00 0.00 0.00 68 1011.9
20260507044559 6 297 3.2 6.4 0.00 0.00 0.00 67 1011.9
20260507044056 6 308 1.6 4.8 0.00 0.00 0.00 69 1011.8
20260507043551 6 314 3.2 3.2 0.00 0.00 0.00 69 1011.8
20260507043049 6 314 3.2 4.8 0.00 0.00 0.00 68 1012.0
20260507042544 6 312 3.2 4.8 0.00 0.00 0.00 68 1011.9
20260507042040 6 306 3.2 4.8 0.00 0.00 0.00 67 1011.9
20260507041537 6 306 3.2 6.4 0.00 0.00 0.00 68 1012.0
20260507041034 6 299 3.2 3.2 0.00 0.00 0.00 67 1012.0
20260507040531 6 298 3.2 3.2 0.00 0.00 0.00 67 1011.8
20260507040027 6 311 3.2 3.2 0.00 1.27 1.27 67 1011.9
20260507035523 6 314 3.2 4.8 0.00 1.27 1.27 68 1011.9
20260507035020 6 312 6.4 9.7 0.00 1.27 1.27 67 1011.8
20260507034517 6 311 3.2 4.8 0.00 1.27 1.27 68 1011.7
20260507034015 6 308 1.6 3.2 0.00 1.27 1.27 68 1011.8
20260507033512 6 310 3.2 4.8 0.00 1.27 1.27 67 1011.7
20260507033009 6 308 3.2 4.8 0.00 1.27 1.27 67 1011.9
20260507032506 6 321 1.6 1.6 0.00 1.27 1.27 68 1011.8
20260507032002 6 321 3.2 3.2 0.00 1.27 1.27 67 1011.7
20260507031458 6 315 4.8 3.2 0.00 1.27 1.27 67 1011.7
20260507030955 6 313 3.2 4.8 0.00 1.27 1.27 67 1011.8
20260507030452 6 307 1.6 3.2 0.00 1.27 1.27 66 1011.8
20260507025950 6 307 3.2 4.8 0.00 1.27 1.27 66 1011.9
20260507025447 6 314 1.6 3.2 0.00 1.27 1.27 66 1011.9
20260507024945 6 318 3.2 3.2 0.00 1.27 1.27 66 1011.8
20260507024442 6 316 1.6 4.8 0.00 1.27 1.27 65 1011.5
20260507023937 6 312 4.8 4.8 0.00 1.27 1.27 64 1011.5
20260507023435 6 318 3.2 6.4 0.00 1.27 1.27 63 1011.6
20260507022932 6 325 3.2 3.2 0.00 1.27 1.27 65 1011.5
20260507022429 6 11 3.2 3.2 0.00 1.27 1.27 63 1011.2
20260507021924 6 17 1.6 3.2 0.00 1.27 1.27 62 1011.3
20260507021420 6 24 1.6 3.2 0.00 1.27 1.27 63 1011.4
20260507020918 6 24 1.6 3.2 0.00 1.27 1.27 61 1011.3
20260507020414 7 28 3.2 3.2 0.00 1.27 1.27 62 1011.2
20260507015911 7 47 0.0 4.8 0.00 1.27 1.27 61 1011.3
20260507015409 7 40 0.0 1.6 0.00 1.27 1.27 61 1011.2
20260507014906 7 33 3.2 3.2 0.00 1.27 1.27 62 1011.4
20260507014402 7 35 1.6 3.2 0.00 1.27 1.27 63 1011.2
20260507013859 7 344 0.0 0.0 0.00 1.27 1.27 62 1011.2
20260507013356 7 344 0.0 1.6 0.00 1.27 1.27 61 1011.2
20260507012853 7 344 0.0 0.0 0.00 1.27 1.27 60 1011.0
20260507012349 7 344 1.6 1.6 0.00 1.27 1.27 60 1011.2
20260507011847 7 344 0.0 0.0 0.00 1.27 1.27 60 1011.3
20260507011344 7 344 0.0 0.0 0.00 1.27 1.27 60 1011.0
20260507010843 7 344 0.0 0.0 0.00 1.27 1.27 59 1011.3
20260507010339 7 344 0.0 0.0 0.00 1.27 1.27 60 1011.3
20260507005837 7 344 1.6 1.6 0.00 1.27 1.27 57 1011.0
20260507005333 7 343 1.6 1.6 0.00 1.27 1.27 58 1011.2
20260507004830 8 315 6.4 6.4 0.00 1.27 1.27 53 1011.3
20260507004327 8 315 6.4 6.4 0.00 1.27 1.27 53 1011.3
20260507003824 8 315 6.4 6.4 0.00 1.27 1.27 53 1011.0
20260507003320 8 315 6.4 6.4 0.00 1.27 1.27 53 1011.0
20260507002815 8 315 6.4 6.4 0.00 1.27 1.27 53 1011.0
20260507002311 8 315 6.4 6.4 0.00 1.27 1.27 53 1011.2
20260507001808 8 315 6.4 6.4 0.00 1.27 1.27 53 1011.2
20260507001306 8 315 6.4 6.4 0.00 1.27 1.27 53 1011.5
20260507000802 8 315 6.4 6.4 0.00 1.27 1.27 53 1011.5
20260507000259 8 323 14.5 16.1 0.00 1.27 1.27 51 1011.4
20260506235754 8 323 14.5 16.1 0.00 1.27 1.27 51 1011.4
20260506235250 8 323 14.5 16.1 0.00 1.27 1.27 51 1011.2
20260506234748 8 323 14.5 16.1 0.00 1.27 1.27 51 1011.3
20260506234244 8 295 9.7 16.1 0.00 1.27 1.27 52 1011.2
20260506233742 8 295 6.4 4.8 0.00 1.27 1.27 54 1011.2
20260506233238 8 295 6.4 4.8 0.00 1.27 1.27 54 1011.0
20260506232735 8 295 6.4 4.8 0.00 1.27 1.27 54 1010.7
20260506232230 9 330 9.7 12.9 0.00 1.27 1.27 52 1010.7
20260506231727 9 330 9.7 12.9 0.00 1.27 1.27 52 1010.5